Terminal Aerodrome Forecast
Issued by NWS

Home | Current Version | Previous Version | Text Only | Print | Product List | Glossary On
Versions: 1 2 3 4 5 6 7 8 9 10 11 12 13 14 15 16 17 18 19 20 21 22 23 24 25 26 27 28 29 30 31 32 33 34 35 36
000
FTAK31 PANC 060530
TAFACD
TAF
PACD 060530Z 0606/0706 14012KT P6SM BKN035 OVC045
     FM061400 VRB05KT P6SM BKN025
     FM070300 33010KT P6SM VCSH BKN018 OVC025=

USA.gov is the U.S. government's official web portal to all federal, state and local government web resources and services.